PROBA-1 1 26958U 01049B 25297.93429640 .00003845 00000+0 25883-3 0 9994 2 26958 97.9587 293.5185 0056042 196.3494 163.5926 15.06080497308196 CUTE-1 (CO-55) 1 27844U 03031E 25297.97203676 .00000514 00000+0 24229-3 0 9998 2 27844 98.6784 304.5005 0010228 143.4771 216.7107 14.24117987158198 CUBESAT XI-IV (CO-57) 1 27848U 03031J 25297.98530467 .00000432 00000+0 20941-3 0 9990 2 27848 98.6813 304.4139 0009826 160.1997 199.9565 14.23435290157918 APRIZESAT 4 1 35684U 09041D 25297.74835715 .00001320 00000+0 16552-3 0 9992 2 35684 98.1701 3.1253 0043851 6.5898 353.5883 14.83336287876455 APRIZESAT 3 1 35686U 09041F 25297.95665261 .00002857 00000+0 25585-3 0 9996 2 35686 98.1760 75.5710 0064014 122.9414 237.7984 14.95140121881212 PROBA-2 1 36037U 09059B 25297.73817181 .00000467 00000+0 11976-3 0 9996 2 36037 98.2396 119.4350 0012068 289.9978 69.9919 14.54652642847292 APRIZESAT 5 1 37792U 11044E 25297.78461692 .00002128 00000+0 27971-3 0 9997 2 37792 98.2300 219.4645 0054013 41.7494 318.7819 14.80344152763954 APRIZESAT 6 1 37793U 11044F 25297.55709670 .00001323 00000+0 19538-3 0 9990 2 37793 98.2449 198.1556 0044717 118.6068 2.5375 14.76368543762379 PROBA-V 1 39159U 13021A 25297.94139127 .00000127 00000+0 73762-4 0 9993 2 39159 98.3349 283.5195 0005397 99.0156 261.1635 14.23528658647647 APRIZESAT 7 1 39416U 13066A 25297.82477824 .00002974 00000+0 30574-3 0 9999 2 39416 97.7388 250.0303 0034698 271.7691 87.9553 14.90659518646150 APRIZESAT 8 1 39425U 13066K 25297.81010856 .00002575 00000+0 28895-3 0 9996 2 39425 97.7919 244.1037 0046177 342.3923 17.5690 14.86896277644683 BUGSAT-1 (TITA) 1 40014U 14033E 25297.97517123 .00007305 00000+0 42036-3 0 9992 2 40014 98.0607 12.1432 0028825 262.2340 97.5616 15.12429517620243 SAUDISAT 4 1 40016U 14033G 25297.93532519 .00001512 00000+0 20771-3 0 9992 2 40016 97.7266 87.7682 0046421 118.3093 242.2814 14.79035199611290 APRIZESAT 9 1 40018U 14033J 25297.92507606 .00001505 00000+0 23043-3 0 9999 2 40018 97.8750 72.4315 0065620 236.1482 123.3471 14.73735670608905 APRIZESAT 10 1 40019U 14033K 25297.92817674 .00000993 00000+0 16479-3 0 9994 2 40019 97.9368 65.6512 0078279 305.6794 53.7143 14.70460995607674 TECHDEMOSAT-1 (TDS-1) 1 40076U 14037H 25297.86839008 .00012511 00000+0 81327-3 0 9992 2 40076 98.3601 262.9768 0006931 358.4051 1.7151 15.08152113612697 TECHNOSAT 1 42829U 17042E 25297.93278233 .00006501 00000+0 48754-3 0 9993 2 42829 97.4039 100.2681 0018666 174.8150 185.3273 15.02843063451348 FLYING LAPTOP 1 42831U 17042G 25297.96089491 .00003074 00000+0 25492-3 0 9991 2 42831 97.4206 98.8600 0010678 206.1954 153.8731 14.99475938451184 HAWK-A 1 43765U 18099H 25297.64189002 .00014922 00000+0 67185-3 0 9994 2 43765 97.4281 348.0997 0039069 34.1999 326.1741 15.20474294377256 HAWK-B 1 43794U 18099AN 25297.86849596 .00009391 00000+0 44354-3 0 9998 2 43794 97.4334 348.1732 0036006 49.5522 310.8843 15.19053797377268 HAWK-C 1 43799U 18099AT 25297.87904125 .00013087 00000+0 56870-3 0 9997 2 43799 97.4265 348.2613 0040723 31.4483 328.9175 15.21651472378033 SALSAT 1 46495U 20068K 25297.93342920 .00011830 00000+0 47429-3 0 9992 2 46495 97.8757 282.6268 0012557 52.6284 307.6095 15.25112161279445 HAWK-2C 1 47502U 21006CT 25297.62109104 .00009964 00000+0 33963-3 0 9999 2 47502 97.2631 341.7710 0006487 337.8313 22.2647 15.30545967263418 HAWK-2A 1 47505U 21006CW 25297.36144534 .00009224 00000+0 31491-3 0 9992 2 47505 97.2676 342.0591 0006314 342.7111 17.3914 15.30518019263376 HAWK-2B 1 47508U 21006CZ 25297.62122898 .00013996 00000+0 47544-3 0 9990 2 47508 97.2547 341.0432 0006797 338.4551 21.6403 15.30567045263413 HAWK-3B 1 48931U 21059BE 25297.95862771 .00031488 00000+0 52801-3 0 9994 2 48931 97.6727 110.7388 0007712 111.2101 248.9975 15.51742393241176 HAWK-3C 1 48948U 21059BX 25297.95835274 .00032305 00000+0 54216-3 0 9991 2 48948 97.6898 115.9356 0007939 111.0356 249.1745 15.51712609241171 HAWK-3A 1 48957U 21059CG 25297.95821930 .00030789 00000+0 51657-3 0 9995 2 48957 97.6825 113.3578 0007591 110.1896 250.0173 15.51733258241171 HAWK-5C 1 52754U 22057Y 25297.91999634 .00021248 00000+0 51045-3 0 9998 2 52754 97.6352 79.6554 0005668 192.6014 167.5091 15.41351759189986 HAWK-5B 1 52756U 22057AA 25297.91977898 .00021174 00000+0 50863-3 0 9993 2 52756 97.6335 78.0237 0006065 188.0104 172.1047 15.41353269189982 HAWK-5A 1 52757U 22057AB 25297.91946835 .00021689 00000+0 52089-3 0 9994 2 52757 97.6347 78.8403 0006345 189.7932 170.3191 15.41353091189980 HAWK-6B 1 55324U 23011A 25297.94535284 .00008178 00000+0 38209-3 0 9999 2 55324 40.5150 281.0830 0003076 224.3124 135.7438 15.19830558152006 HAWK-6C 1 55326U 23011C 25297.35337636 .00008609 00000+0 40187-3 0 9994 2 55326 40.4835 281.7537 0002296 214.8198 145.2460 15.19816695151923 HAWK-6A 1 55327U 23011D 25297.94480102 .00008188 00000+0 38259-3 0 9996 2 55327 40.4995 279.7410 0002326 228.5247 131.5362 15.19827311152016 HAWK-7A 1 56191U 23054P 25297.65960280 .00010403 00000+0 36315-3 0 9995 2 56191 97.2949 185.3386 0006414 177.4248 182.7027 15.29758764141069 HAWK-7B 1 56193U 23054R 25297.65943018 .00010396 00000+0 36223-3 0 9996 2 56193 97.2968 183.5279 0006615 188.8791 171.2334 15.29819138141062 HAWK-7C 1 56200U 23054Y 25297.65938061 .00010535 00000+0 36729-3 0 9993 2 56200 97.2955 184.3535 0006118 185.8526 174.2644 15.29798636141068